Regional Weather Roundup
Issued by NWS

Home | Current Version | Previous Version | Graphics & Text | Print | Product List | Glossary On
Versions: 1 2 3 4 5 6 7 8 9 10 11 12 13 14 15 16 17 18 19 20 21 22 23 24 25 26 27 28 29 30 31 32 33 34 35 36 37 38 39 40 41 42 43 44 45 46 47 48 49 50
000
ASUS43 KLMK 250610
RWRKY
KENTUCKY REGIONAL WEATHER ROUNDUP
NATIONAL WEATHER SERVICE LOUISVILLE KY
200 AM EDT MON JUL 25 2016

NOTE "FAIR" INDICATES FEW OR NO CLOUDS BELOW 12,000 FEET
WITH NO SIGNIFICANT WEATHER AND/OR OBSTRUCTIONS TO VISIBILITY.

KYZ001>023-026-027-061>063-070>075-250700-
WESTERN AND SOUTH CENTRAL KENTUCKY

CITY           SKY/WX    TMP DP  RH WIND       PRES   REMARKS
PADUCAH        CLEAR     79  76  90 CALM      29.98R
HENDERSON      CLEAR     77  73  88 CALM      29.98R
OWENSBORO      CLEAR     82  78  88 CALM      30.00R HX  91
HOPKINSVILLE   CLEAR     80  74  82 W5        29.98R
BOWLING GREEN  CLEAR     81  76  84 CALM      29.99R
GLASGOW        PTCLDY    77  77  99 CALM      30.01R
$$

KYZ024-025-028>034-038-045-046-053-250700-
NORTH CENTRAL KENTUCKY

CITY           SKY/WX    TMP DP  RH WIND       PRES   REMARKS
LOUISVILLE/SDF PTCLDY    83  75  77 W6        29.99R HX  90
LOUISVILLE/LOU CLEAR     83  75  77 CALM      30.00R HX  90
FORT KNOX      CLEAR     77  75  94 W2        30.00R
$$

KYZ035>037-039>044-047>052-055>060-089>105-250700-
NORTHEAST KENTUCKY

CITY           SKY/WX    TMP DP  RH WIND       PRES   REMARKS
LEXINGTON      CLEAR     80  73  79 CALM      30.03R
COVINGTON      PTCLDY    79  76  90 SW5       30.01R
FRANKFORT      CLEAR     79  74  84 CALM      30.00R
$$

KYZ054-064>069-076>088-106>120-250700-
SOUTHEAST KENTUCKY

CITY           SKY/WX    TMP DP  RH WIND       PRES   REMARKS
JACKSON        CLEAR     79  74  84 CALM      30.04R
LONDON         CLEAR     76  72  87 CALM      30.04R
SOMERSET       CLEAR     75  75 100 CALM      30.03R
MIDDLESBORO    CLEAR     75  73  95 CALM      30.05S
MONTICELLO     CLEAR    N/A N/A N/A VRB7      30.04R
$$




USA.gov is the U.S. government's official web portal to all federal, state and local government web resources and services.